Flag for Australia Weather past 2 weeks in Hobart, Tasmania, Australia

Now
45 °F

Passing clouds.


Feels Like: 43 °F
Forecast: 42 / 64 °F
Wind: 3 mph from Northwest

Location: Hobart Airport

Current Time: Sep 20, 2014 at 10:14:57 PM

Latest Report: Sep 20, 2014 at 9:30 PM


Visibility: N/A

Pressure: 30.30 "Hg

Humidity: 71%

Dew point: 36 °F

Location of HobartLocation

Historic Weather in Hobart — Graph

°F

Hobart temperature yesterday

Maximum temperature yesterday: 61 °F (at 1:30 PM)
Minimum temperature yesterday: 48 °F (at 1:00 AM)
Average temperature yesterday: 54 °F

Past Weeks' High & Low Weather Summary

 TemperatureHumidityPressure
High68 °F (Sep 7, 1:30 PM)93% (Sep 6, 10:30 PM)30.39 "Hg (Sep 6, 10:30 PM)
Low37 °F (Sep 16, 1:00 AM)17% (Sep 7, 2:00 PM)29.36 "Hg (Sep 10, 11:00 PM)
Average52 °F61%29.95 "Hg
* Reported Sep 5 9:00 PM — Sep 20 9:00 PM, Hobart, Weather by CustomWeather, © 2014

Note: Actual official high and low records may vary slightly from our data, if they occured in-between our weather recording intervals... More about our weather records

Advertising

Hobart weather history for previous 24 hours

 ConditionsComfort  
Time TempWeatherWind HumidityBarometerVisibility
9:00 PM
Sep 20
48 °FPassing clouds.6 mph62%30.30 "HgN/A
8:00 PM48 °FPassing clouds.6 mph66%30.27 "HgN/A
7:30 PM52 °FPassing clouds.8 mph58%30.27 "HgN/A
7:00 PM52 °FPassing clouds.12 mph58%30.27 "HgN/A
6:00 PM55 °FPassing clouds.14 mph51%30.24 "HgN/A
5:30 PM57 °FPassing clouds.13 mph48%30.21 "HgN/A
5:00 PM57 °FBroken clouds.10 mph48%30.24 "HgN/A
4:30 PM59 °FBroken clouds.13 mph48%30.21 "HgN/A
4:00 PM59 °FPartly sunny.15 mph45%30.21 "HgN/A
3:30 PM59 °FBroken clouds.17 mph45%30.21 "HgN/A
3:00 PM61 °FScattered clouds.14 mph42%30.18 "HgN/A
2:30 PM59 °FBroken clouds.16 mph45%30.18 "HgN/A
2:00 PM59 °FScattered clouds.16 mph48%30.18 "HgN/A
1:30 PM61 °FScattered clouds.15 mph45%30.18 "HgN/A
1:00 PM61 °FPartly sunny.12 mph45%30.18 "HgN/A
12:00 PM59 °FScattered clouds.6 mph48%30.18 "HgN/A
11:00 AM57 °FScattered clouds.7 mph51%30.21 "HgN/A
10:00 AM57 °FScattered clouds.8 mph55%30.21 "HgN/A
9:30 AM59 °FScattered clouds.3 mph51%30.21 "HgN/A
9:00 AM57 °FPassing clouds.6 mph55%30.21 "HgN/A
8:30 AM55 °FPassing clouds.6 mph55%30.21 "HgN/A
8:00 AM54 °FPassing clouds.6 mph63%30.18 "HgN/A
7:00 AM54 °FScattered clouds.10 mph58%30.18 "HgN/A
6:30 AM50 °FPassing clouds.8 mph71%30.18 "HgN/A
6:00 AM52 °FScattered clouds.8 mph67%30.15 "HgN/A
5:30 AM52 °FScattered clouds.9 mph67%30.15 "HgN/A
5:00 AM52 °FPassing clouds.13 mph67%30.15 "HgN/A
4:30 AM50 °FPassing clouds.8 mph71%30.12 "HgN/A
4:00 AM50 °FPassing clouds.3 mph71%30.12 "HgN/A
3:00 AM50 °FPassing clouds.6 mph71%30.09 "HgN/A
2:30 AM48 °FPassing clouds.5 mph82%30.09 "HgN/A
2:00 AM48 °FPassing clouds.1 mph76%30.09 "HgN/A
1:30 AM46 °FPassing clouds.No wind87%30.09 "HgN/A
1:00 AM50 °FPassing clouds.5 mph71%30.09 "HgN/A
12:30 AM50 °FPassing clouds.6 mph76%30.09 "HgN/A
12:00 AM50 °FPassing clouds.8 mph71%30.09 "HgN/A
11:30 PM
Sep 19
54 °FPassing clouds.16 mph63%30.09 "HgN/A
11:00 PM54 °FPassing clouds.10 mph63%30.09 "HgN/A
10:30 PM52 °FPassing clouds.10 mph67%30.09 "HgN/A
10:00 PM52 °FPassing clouds.12 mph67%30.09 "HgN/A
Weather by CustomWeather, © 2014

See weather overviewHow to use our weather pages